User: anonymous   Login
Location: Caseificio
(44.7500°N, 11.0500°E)
Time: 08:36:21
(UTC+00:00)
Language:

COSMOS 2455 - Orbit

View from above orbital plane
View from above orbital plane
View from above satellite
View from above satellite

Ground track
Ground track

The orbit data is extracted from the following two-line orbital elements,

1 36095U 09063A   22222.33745408 -.00000042  00000-0  23939-4 0  9992
2 36095  67.1475  73.6197 0003442 255.9154 104.1548 13.96796303648639
Epoch (UTC): 10 August 2022 08:05:56
Eccentricity: 0.0003442
inclination: 67.1475°
perigee height: 902 km
apogee height: 907 km
right ascension of ascending node: 73.6197°
argument of perigee: 255.9154°
revolutions per day: 13.96796303
mean anomaly at epoch: 104.1548°
orbit number at epoch: 64863

The dashed part of the orbit path shows where the satellite is in the earth's shadow,  

DLR